sat.trackr.live / text

‹ back to catalog

PELICAN-5

NORAD 66667 · 2025-276B

PAYLOAD ACTIVE UNKNOWN

§ Identity

Operator
Country
US
Launch date
2025-11-28
Launch site
AFWTR
Launch vehicle
Mass (kg)
RCS (m²)

Purposes: earth_obs

External: N2YO · Heavens-Above · Gunter

§ Orbital elements

Epoch: 2026-05-25T04:13:54.078240Z

Period
94.19 min
Inclination
97.4124°
Eccentricity
0.0004603
Mean motion
15.28858512 rev/d
Perigee alt
476.1 km
Apogee alt
482.4 km
Semi-major
6,857.4 km
B*
1.6090e-4
RAAN
220.2285°
Arg perigee
70.8355°
Mean anomaly
289.3382°
Rev number
2,700

§ Raw data

PELICAN-51 66667U 25276B   26145.17632035  .00004436  00000+0  16090-3 0  99932 66667  97.4124 220.2285 0004603  70.8355 289.3382 15.28858512 27001

JSON: /api/v1/satellites/66667 · /tle

For live sub-satellite position, see the globe view (requires WebGL).

§ Visibility from observer

Set your observer location to see the next 7 days of passes ≥ 10°. The values pass through the URL so the page stays shareable.

No JS? Fill the form by hand. The geolocation button needs JavaScript.